This is the latest recevied weather packets stored in our database for station/object N8TWM-13. If no packets are shown the sender has not sent any weather packets the latest 10 day(s).
| Time | Temp. | Humidity | Pressure | Rain* | Wind** | Luminosity | Snow |
|---|---|---|---|---|---|---|---|
| 1777505455 | 8.89° C | 93% | 1010.9 hPa | 0 mm | - | 6 W/m² | - |
| 1777505151 | 8.89° C | 93% | 1010.7 hPa | 0 mm | - | 8 W/m² | - |
| 1777504848 | 8.89° C | 93% | 1010.7 hPa | 0 mm | - | 7 W/m² | - |
| 1777504545 | 8.89° C | 93% | 1010.7 hPa | 0 mm | - | 4 W/m² | - |
| 1777504241 | 8.89° C | 93% | 1010.8 hPa | 0 mm | - | 7 W/m² | - |
| 1777503937 | 8.89° C | 93% | 1010.6 hPa | 0 mm | - | 8 W/m² | - |
| 1777503633 | 8.89° C | 93% | 1010.7 hPa | 0 mm | - | 5 W/m² | - |
| 1777503330 | 8.89° C | 93% | 1010.6 hPa | 0 mm | - | 8 W/m² | - |
| 1777503026 | 8.89° C | 93% | 1010.5 hPa | 0 mm | - | 17 W/m² | - |
| 1777502724 | 8.89° C | 93% | 1010.6 hPa | 0 mm | - | 19 W/m² | - |
| 1777502421 | 8.89° C | 93% | 1010.5 hPa | 0 mm | - | 15 W/m² | - |
| 1777502117 | 8.89° C | 93% | 1010.4 hPa | 0 mm | - | 13 W/m² | - |
| 1777501816 | 9.44° C | 93% | 1010.2 hPa | 0 mm | - | 32 W/m² | - |
| 1777501512 | 8.89° C | 93% | 1010.2 hPa | 0 mm | - | 48 W/m² | - |
| 1777501209 | 8.89° C | 93% | 1009.9 hPa | 0 mm | - | 18 W/m² | - |
| 1777500907 | 9.44° C | 93% | 1010.2 hPa | 0 mm | - | 50 W/m² | - |
| 1777500604 | 8.89° C | 93% | 1010 hPa | 0 mm | - | 54 W/m² | - |
| 1777500301 | 9.44° C | 93% | 1010 hPa | 0 mm | - | 69 W/m² | - |
| 1777499997 | 9.44° C | 93% | 1009.9 hPa | 0 mm | - | 65 W/m² | - |
| 1777499694 | 9.44° C | 93% | 1009.9 hPa | 0 mm | - | 62 W/m² | - |
| 1777499390 | 9.44° C | 93% | 1010 hPa | 0 mm | - | 80 W/m² | - |
| 1777499089 | 9.44° C | 93% | 1010 hPa | 0 mm | - | 54 W/m² | - |
| 1777498785 | 9.44° C | 93% | 1009.9 hPa | 0 mm | - | 73 W/m² | - |
| 1777498482 | 9.44° C | 93% | 1009.9 hPa | 0 mm | - | 106 W/m² | - |
| 1777498178 | 9.44° C | 93% | 1010 hPa | 0 mm | - | 65 W/m² | - |
* Rain latest hour (hover to see other rain measurements)
** Current wind speed in m/s (hover to see current wind gust speed)